Temp_Advection
nan nan nan nan nan nan nan nan nan nan nan nan nan nan nan nan nan nan nan nan nan nan nan nan nan nan nan nan nan nan nan nan nan nan nan nan nan nan nan nan nan nan nan nan nan nan nan nan nan nan nan nan nan nan nan nan nan nan nan nan nan nan nan nan nan nan nan nan nan
nan 0 0 0 0 -0 -0 -0 -0 0 0 1 1 1 0 0 0 0 0 0 0 0 0 0 0 0 0 0 0 0 0 0 0 -0 -0 -0 0 0 0 0 0 0 0 0 0 -0 -0 -0 -0 -0 -0 -0 -0 -0 -0 -0 -0 -0 -0 -0 -0 -0 -0 -0 -0 -1 -1 -1 nan
nan 0 0 0 -0 -0 -0 -0 -0 0 0 1 1 1 1 0 0 0 0 0 0 0 0 0 0 0 0 0 0 0 0 0 0 -0 -0 0 0 0 0 0 0 0 0 0 0 0 -0 -0 -0 -0 -0 -0 -0 -0 -0 -0 -0 -0 -0 -0 -0 -0 -0 -0 -0 -0 -0 -0 nan
nan 0 0 -0 0 0 0 0 0 0 0 1 1 1 1 0 0 0 0 0 0 0 0 0 0 0 0 0 0 0 0 0 0 0 0 0 0 0 0 0 0 0 0 0 0 0 0 -0 -0 -0 -0 -0 -0 -0 -0 -0 -0 -0 -0 -0 -0 -0 -0 -0 -0 -0 -0 -0 nan
nan 0 0 0 0 0 0 0 0 0 0 1 1 1 1 1 0 0 0 0 0 0 0 0 -0 -0 0 0 0 0 0 0 0 0 0 0 0 0 0 0 0 0 0 0 0 0 0 0 -0 -0 -0 -0 -0 -0 -0 -0 -0 -0 -0 -0 -0 -0 -0 -0 -0 -0 -0 -0 nan
nan 0 0 0 0 0 0 0 0 0 0 1 1 1 1 1 0 0 0 0 0 0 0 -0 -0 -0 0 0 0 0 0 0 0 0 0 0 0 0 0 0 0 0 0 0 0 0 0 0 0 -0 -0 -0 -0 -0 -0 -0 -0 -0 -0 -0 -0 -0 -0 -0 -0 -0 -0 -0 nan
nan 0 0 0 0 0 0 0 0 0 0 1 1 1 1 1 0 0 0 0 0 0 0 -0 -0 -0 0 0 0 0 0 0 0 0 0 0 0 0 0 0 0 0 0 0 0 0 0 0 0 -0 -0 -0 -0 -0 -0 -0 -0 -0 -0 -0 -0 -0 -0 -0 -0 -0 -0 -0 nan
nan 1 1 1 1 0 0 1 1 0 1 1 1 1 1 1 0 0 0 0 1 0 0 0 -0 -0 -0 0 0 1 0 0 0 0 0 0 0 0 0 0 0 0 0 0 0 0 0 0 0 0 -0 -0 -0 -0 -0 -0 -0 -0 -0 -0 -1 -1 -0 -0 -0 -0 -0 -0 nan
nan 1 1 1 1 1 1 1 1 1 1 1 1 1 1 1 0 0 0 0 1 1 1 0 0 -0 -0 0 1 1 1 0 0 0 0 0 0 0 0 0 0 0 0 0 0 0 0 0 0 0 -0 -0 -0 -0 -0 -0 -0 -0 -0 -0 -0 -1 -1 -1 -0 -0 -0 -0 nan
nan 1 1 1 1 1 1 1 1 1 1 1 1 1 1 1 0 0 0 0 1 1 1 0 -0 -0 -0 -0 0 1 1 0 0 0 0 0 0 0 0 0 0 0 0 0 0 0 0 0 0 0 0 0 -0 -0 -0 -0 -0 -0 -0 -0 -0 -0 -0 -1 -0 -0 -0 -0 nan
nan 1 1 1 1 1 1 1 1 1 1 1 1 1 1 1 0 0 0 0 1 1 1 0 -0 -0 -0 -0 0 1 1 0 0 0 0 0 0 0 -0 -0 0 0 0 0 0 0 0 0 0 0 0 0 -0 -0 -0 -0 -0 -0 -0 -0 -0 -0 -0 -0 -0 -0 -0 -0 nan
nan 1 1 1 1 1 1 1 1 1 1 0 1 1 1 1 0 0 0 0 1 1 1 0 -0 -0 -0 0 1 1 1 0 0 0 0 0 0 0 -0 -0 -0 0 0 0 0 0 0 0 0 0 0 -0 -0 -0 -0 -0 -0 -0 -0 -0 -0 -0 -0 -0 -0 -0 -0 -0 nan
nan 2 1 1 1 1 1 1 1 1 0 0 1 1 1 1 0 0 0 1 1 1 1 0 -0 -0 -0 0 1 1 0 0 0 0 0 0 0 0 0 -0 -0 -0 0 0 0 0 0 0 0 0 0 -0 -0 -0 -0 -0 -0 -0 -0 -0 -0 -0 -0 -0 -0 -1 -1 -1 nan
nan 1 1 1 1 1 1 1 1 1 1 1 1 1 1 1 1 0 0 1 1 1 1 0 -0 -0 0 0 1 1 0 0 0 0 1 1 0 0 0 -0 -0 -0 -0 -0 0 0 0 0 0 0 -0 -0 -0 -0 -0 -0 -0 -0 -0 -0 -0 -0 -0 -0 -0 -0 -1 -1 nan
nan 1 1 1 1 1 1 1 1 1 1 1 1 1 1 1 1 0 0 1 1 1 1 0 -0 0 0 0 1 1 0 0 0 0 1 1 1 0 0 -0 -0 -0 -0 -0 -0 0 0 -0 -0 -0 -0 -0 -0 -0 -0 -0 -0 -0 -0 -0 -0 -0 -0 -0 -0 -1 -1 -1 nan
nan 1 1 1 1 1 1 1 1 1 0 1 1 1 1 1 1 0 1 1 1 1 1 0 0 0 0 1 1 0 0 -0 -0 0 1 1 1 0 0 -0 -0 -0 -0 -0 -0 -0 -0 -0 -0 -0 -0 -0 -0 -0 -0 -0 -0 -0 -0 -0 -0 -0 -0 -0 -0 -0 -0 -0 nan
nan 1 1 1 1 1 1 1 1 0 0 1 1 1 1 1 0 0 1 1 1 1 1 0 0 0 0 1 1 0 0 -0 -0 0 1 1 1 1 0 -0 -0 -0 -0 -0 -0 -0 -0 -0 -0 0 -0 -0 -0 -0 -0 -0 -0 -0 -0 -0 -0 -0 -0 -0 -0 -0 -0 -0 nan
nan 2 1 1 1 1 1 1 0 0 1 1 1 1 1 1 1 1 1 1 1 1 0 0 0 0 0 0 0 0 -0 -0 -0 0 1 1 1 1 0 0 -0 -0 -0 -0 -0 -0 -0 -0 -0 -0 -0 -0 0 -0 -0 -0 -0 -0 -0 -0 -0 -0 -0 -0 -0 -0 -0 -0 nan
nan 2 1 1 1 1 1 1 1 1 1 1 1 1 1 1 1 1 1 1 1 1 0 0 0 0 0 0 0 0 -0 -0 -0 -0 0 1 1 1 0 0 0 -0 -0 -0 -0 -0 -0 -0 -0 -0 -0 -0 -0 -0 -0 -0 -0 -0 -0 -0 -0 -0 -0 -0 -0 -0 -0 -0 nan
nan 2 1 1 1 1 1 1 1 1 1 1 1 1 1 1 1 1 1 1 1 0 0 0 0 0 0 0 0 -0 -0 -0 -0 -0 0 1 1 1 0 0 0 -0 -0 -0 -0 -0 -0 -0 -0 -0 -0 -0 -0 -0 -0 -0 -0 -0 -0 -0 -0 -0 -0 -0 -0 -0 -0 -0 nan
nan 2 2 2 1 1 1 1 1 1 1 1 1 1 1 1 1 1 1 1 0 0 0 0 0 0 0 0 0 -0 -0 -0 -0 -0 0 0 1 1 0 0 0 0 -0 -0 -0 -0 -0 -0 -0 -0 -0 -0 -0 -0 -0 -0 -0 -0 -0 -0 -0 -0 -0 -0 -0 -0 -0 -0 nan
nan 2 2 1 1 1 1 1 1 1 1 1 1 1 1 1 1 1 1 1 0 0 0 0 0 0 0 0 -0 -0 -0 -0 -0 -0 0 0 0 0 0 0 0 0 -0 -0 -0 -0 -0 -0 -0 -0 -0 0 0 -0 -0 -0 -0 -0 -0 -0 -0 -0 -0 -0 -0 -0 -0 -0 nan
nan 2 2 1 1 1 1 1 1 1 1 1 1 1 1 1 1 1 1 0 0 0 0 0 0 0 0 0 -0 -0 -0 -0 -0 -0 0 0 0 0 0 0 0 0 -0 -0 -0 -0 -0 -0 -0 -0 -0 -0 0 0 -0 -0 -0 -0 -0 -0 -0 -0 -0 -0 -0 -0 -0 -0 nan
nan 2 2 1 1 1 1 1 1 1 1 1 1 1 1 1 1 1 0 0 0 0 0 0 0 0 0 0 -0 -0 -0 -0 -0 -0 -0 -0 -0 0 1 1 0 0 -0 -0 -0 -0 -0 -0 -0 -0 -0 -0 -0 -0 -0 -0 -0 -0 -0 -0 -0 -0 -0 -0 -0 -0 -0 -0 nan
nan 2 1 1 1 1 1 1 1 1 1 1 1 1 1 1 0 0 0 0 0 0 0 0 0 0 0 -0 -0 -0 -0 -0 -0 -0 -0 -0 -0 0 0 1 0 0 0 -0 -0 -0 -0 -0 -0 -0 -0 -0 -0 -0 -0 -0 0 -0 -0 -0 -0 -0 -0 -0 0 0 -0 -0 nan
nan 1 1 1 1 1 1 1 1 1 1 1 1 0 0 0 0 0 0 0 0 0 0 0 0 0 -0 -0 0 0 -0 -0 -0 -0 -0 -0 -0 0 0 0 0 0 0 -0 -0 -0 -0 -0 -0 -0 -0 -0 -0 -0 -0 -0 -0 0 0 -0 -0 -0 -0 -0 0 0 0 0 nan
nan 1 1 1 1 1 1 1 1 1 0 0 0 0 0 0 0 0 0 0 0 0 0 0 0 0 0 -0 -0 0 0 0 -0 -0 -0 -0 -0 0 0 0 0 0 -0 -0 -0 -0 -0 -0 -0 -0 -0 -0 -0 -0 -0 -0 -0 -0 0 0 -0 -0 -0 -0 -0 -0 0 0 nan
nan 1 1 1 1 0 0 0 0 0 0 0 0 0 0 0 0 0 0 0 0 0 0 0 0 0 -0 -0 -0 -0 -0 -0 -0 -0 -0 -0 -0 0 0 0 0 -0 -0 -0 -0 -0 -0 -0 -0 -0 -0 -0 -0 -0 -0 -0 -0 -0 -0 -0 -0 -0 -0 -0 -0 -0 -0 -0 nan
nan 1 1 0 0 0 0 0 0 0 0 0 0 0 0 0 0 0 0 0 0 0 0 0 0 -0 -0 -0 -0 -0 -0 -0 -0 -0 -0 -0 0 0 0 0 0 -0 -0 -0 -0 -0 -0 -0 -0 -0 -0 -0 -0 -0 -0 -1 -0 -0 -0 -0 -0 -0 -0 -0 -0 -0 -0 -0 nan
nan 0 0 0 0 0 0 0 0 0 0 0 0 0 0 0 0 0 0 0 0 0 0 -0 -0 -0 -0 -0 -0 -0 -0 -0 -0 -0 -0 -0 0 0 0 -0 0 -0 -0 -0 -0 -0 -0 -0 -0 -0 -0 -0 -0 -0 -0 -0 -1 -0 -0 -0 -0 -0 -0 -0 -0 -0 -0 -1 nan
nan 0 0 0 0 0 0 0 0 0 0 0 0 0 0 0 0 0 0 0 0 0 -0 -0 -0 -0 -0 -0 -0 -0 -0 -0 -0 -0 -0 -0 -0 -0 -0 -0 -0 0 -0 -0 -0 -0 -0 -0 -0 -0 -0 -0 -0 -0 -0 -0 -0 -0 -0 -0 -0 -0 -0 -0 -0 -0 -0 -0 nan
nan 0 0 0 0 0 0 0 0 0 0 0 0 0 0 0 0 0 0 -0 -0 -0 -0 -0 -0 -0 -0 -0 -0 -0 -0 -0 -0 -0 -0 -0 -0 -0 -0 -0 0 0 -0 -0 -0 -0 -0 -0 -0 -0 0 -0 -0 -0 -0 -0 -0 -0 -0 -0 -0 -0 -0 -0 -0 -0 -0 -0 nan
nan 0 0 0 0 0 0 0 0 0 0 0 0 0 0 0 0 -0 -0 -0 -0 -0 -0 -0 -0 -0 -0 -0 -0 -0 -0 -0 -0 -0 -0 -0 -0 -0 -0 0 0 0 0 -0 0 0 -0 -0 -0 0 0 -0 -0 -0 -0 -0 -0 -0 -0 -0 -0 -0 -0 -0 -0 -0 -0 -0 nan
nan 0 0 1 0 0 0 0 0 0 0 0 0 0 0 0 -0 -0 -0 -0 -0 -0 -0 -0 -0 -0 -0 -0 -0 -0 -0 0 -0 0 0 -0 -0 -0 -0 -0 0 0 0 0 0 -0 0 0 0 0 0 -0 -0 -0 -0 -0 -0 -0 -0 -0 -0 -0 -0 -0 -0 -0 -0 -0 nan
nan 0 0 0 0 0 0 0 0 0 0 0 0 0 0 -0 0 0 -0 -0 -0 -0 -0 -0 -0 -0 -0 -0 -0 -0 -0 0 0 0 -0 -0 -0 -0 -0 -0 0 -0 -0 0 0 -0 -0 -0 0 0 -0 -0 -0 -0 -0 -0 -0 -0 -0 -0 -0 -0 -0 -0 -0 -0 -0 -0 nan
nan 0 0 0 0 0 0 0 0 0 0 0 0 0 0 0 -0 -0 -0 -0 -0 -0 -0 -0 -0 -0 -0 -0 -0 -0 -0 -0 0 0 0 -0 -0 -0 -0 -0 -0 -0 -0 -0 -0 -0 -0 -0 -0 -0 -0 -0 -0 -0 -0 -0 -0 -0 -0 -0 -0 -0 -0 -0 -0 -0 -0 -0 nan
nan 0 0 0 0 0 0 0 0 0 0 0 0 0 0 0 0 -0 -0 -0 -0 -0 -0 -0 -0 -0 -0 -0 -0 -0 -0 -0 -0 0 0 -0 -0 -0 -0 -0 -0 -0 -0 -0 -0 -0 -0 -0 -0 -0 -0 -0 -0 -0 -0 -0 -0 -1 -1 -0 -0 -0 -0 -0 -0 -0 -0 -0 nan
nan 0 0 0 0 0 0 0 0 0 0 0 0 0 0 0 -0 -0 -0 -0 -0 -0 -0 -0 -0 -0 -0 -0 -0 0 0 -0 -0 0 0 0 -0 -0 -0 -0 -0 -0 -0 0 -0 -0 -0 -0 -0 -0 -0 -0 -0 -0 -0 -0 -0 -0 -0 -1 -0 -0 -0 -0 -0 -0 -0 -0 nan
nan 0 0 0 0 0 0 0 0 0 0 0 0 0 0 0 0 -0 -0 -0 -0 -0 -0 -0 -0 -0 -0 -0 -0 0 0 -0 -0 -0 -0 -0 -0 -0 -0 -0 -0 -0 -0 0 0 0 -0 -0 -0 0 -0 -0 -0 -0 -0 -0 -0 -0 -0 -0 -0 -0 -0 -0 -0 -0 -0 -0 nan
nan 0 0 0 0 0 0 0 0 0 0 0 0 0 0 0 0 -0 -0 -0 -0 -0 -0 -0 -0 -0 -0 -0 -0 0 0 -0 -0 -0 -0 -0 -0 -0 -0 -0 -0 -0 -0 -0 0 0 0 -0 -0 0 0 0 0 0 -0 -0 -0 -0 -0 -0 -0 -0 -0 -0 -0 -0 -0 -0 nan
nan nan nan nan nan nan nan nan nan nan nan nan nan nan nan nan nan nan nan nan nan nan nan nan nan nan nan nan nan nan nan nan nan nan nan nan nan nan nan nan nan nan nan nan nan nan nan nan nan nan nan nan nan nan nan nan nan nan nan nan nan nan nan nan nan nan nan nan nan
Wind_Speed
21 20 19 18 18 17 17 16 16 16 16 15 15 14 14 14 14 13 13 12 12 11 11 10 10 11 11 12 12 12 12 12 12 12 11 11 11 11 11 11 11 11 11 11 11 11 12 12 12 12 13 13 14 14 15 16 17 17 18 18 19 19 20 20 21 21 22 22 23
22 21 20 20 19 19 18 17 17 17 17 17 16 15 14 14 14 14 13 13 12 12 11 11 11 11 12 12 13 13 13 13 12 12 12 12 12 12 12 12 12 12 12 11 12 12 12 12 12 12 12 13 14 14 15 16 16 17 18 18 19 19 20 20 21 21 22 22 23
24 23 22 22 21 21 20 19 18 18 18 17 17 16 15 15 15 14 14 14 13 13 12 12 12 12 12 12 13 13 13 13 13 13 12 12 12 12 12 12 12 12 12 12 12 12 12 12 12 12 12 13 13 14 14 15 16 17 17 18 19 19 20 20 21 22 22 23 24
26 25 24 24 23 23 22 20 19 19 19 19 18 17 16 16 15 15 15 15 14 14 13 13 12 12 12 13 13 13 13 14 13 13 13 13 13 13 13 13 13 13 13 12 12 12 12 12 12 12 12 13 13 14 14 15 16 16 17 17 18 19 20 20 21 22 23 24 24
28 27 26 25 25 24 23 22 21 20 20 20 19 18 18 17 16 16 16 16 15 14 14 13 12 12 12 13 13 13 14 14 13 13 13 13 13 13 13 13 13 13 13 13 13 12 12 12 12 12 12 13 13 13 14 15 15 16 17 17 18 19 19 20 21 22 23 24 25
30 29 28 27 26 25 24 23 22 22 21 21 20 19 19 18 17 17 17 16 16 15 14 13 12 12 12 13 13 13 13 13 13 13 13 13 13 13 13 13 13 13 13 13 13 13 13 13 12 12 13 13 13 14 14 15 15 16 17 17 18 19 20 20 21 22 23 24 25
31 30 29 28 27 27 26 25 24 23 23 22 21 20 20 19 18 17 17 17 16 15 14 13 12 12 12 13 13 13 13 13 13 13 13 13 13 13 13 13 14 14 14 14 13 13 13 13 12 13 13 13 13 14 14 15 15 16 17 17 18 19 20 20 22 22 23 24 26
32 31 30 29 28 28 27 26 26 25 24 23 22 21 21 20 19 18 17 17 16 15 14 13 12 12 12 13 13 13 13 13 13 13 13 13 13 13 13 13 13 14 14 14 14 13 13 13 13 13 13 14 14 14 15 15 16 16 17 18 19 20 20 21 22 23 24 25 25
32 32 31 30 30 29 28 27 26 25 24 24 23 22 21 20 19 18 18 17 16 15 14 13 12 12 12 13 13 13 13 13 13 13 13 13 13 13 13 13 13 13 14 14 14 14 14 14 14 14 14 14 14 15 15 16 16 17 18 18 19 20 21 22 23 23 24 24 25
34 33 32 31 30 29 29 28 27 26 25 24 24 23 22 21 20 19 18 17 16 15 14 12 12 12 12 13 13 13 13 12 12 12 12 13 13 13 13 13 13 13 14 14 14 14 14 14 14 15 15 15 15 16 16 17 17 18 18 19 20 21 22 22 23 23 23 24 23
34 33 33 31 30 29 28 27 27 26 25 25 24 23 22 21 20 19 18 17 16 15 13 12 11 11 12 13 13 13 13 12 12 12 12 12 12 13 13 13 13 13 13 14 14 14 14 15 15 15 16 16 16 17 17 18 18 19 19 20 21 21 22 22 22 22 22 22 21
34 33 32 31 30 29 28 27 26 26 25 25 24 23 22 21 20 19 18 17 16 15 13 12 12 12 12 13 13 13 12 12 12 12 12 12 12 12 13 13 13 13 14 14 14 14 15 15 15 16 16 17 17 18 18 19 19 19 20 20 20 20 20 20 20 20 20 19 19
33 32 31 30 29 28 27 26 26 25 25 24 24 23 21 20 19 18 17 17 16 15 13 12 12 12 13 13 13 13 12 12 11 11 12 12 12 12 13 13 13 13 14 14 14 15 15 15 16 16 17 18 18 19 19 19 19 19 19 19 19 19 18 18 18 17 17 17 17
32 31 30 29 28 27 27 26 25 25 24 24 23 22 21 19 19 18 17 16 15 14 13 12 12 13 13 13 13 12 12 11 11 11 11 12 12 13 13 13 13 13 14 14 14 15 15 16 16 17 17 18 18 18 18 18 18 18 18 17 17 16 16 16 15 15 15 15 15
32 31 30 29 28 27 26 25 25 24 23 22 22 21 20 18 18 17 17 16 15 14 13 12 12 13 13 13 13 12 12 11 11 11 12 12 12 13 13 13 14 14 14 14 14 15 15 15 16 16 17 17 17 17 17 17 17 16 16 15 15 15 15 14 14 14 14 14 15
31 30 29 28 27 26 25 25 24 23 22 21 20 19 18 17 17 17 16 15 15 14 13 12 12 13 13 13 12 12 11 11 12 12 12 12 12 13 13 14 14 14 14 14 14 14 15 15 15 15 16 16 16 16 16 15 15 15 15 15 14 14 14 14 14 14 14 15 15
30 29 28 28 27 26 25 24 23 22 21 20 19 18 17 17 16 16 15 15 14 13 12 12 12 12 12 12 12 11 11 11 12 12 12 12 12 13 13 13 13 13 13 14 14 14 14 14 14 15 15 15 15 15 15 15 15 15 15 15 15 15 15 15 15 15 15 16 16
30 29 28 27 26 25 24 23 22 21 20 19 18 17 16 16 15 15 14 14 13 12 12 12 12 12 12 11 11 11 10 10 11 12 12 12 12 12 13 13 13 13 13 13 13 13 13 14 14 14 14 14 15 15 15 15 15 15 15 15 15 16 16 16 16 16 16 16 17
29 28 27 26 25 24 23 22 21 20 19 18 17 16 16 15 14 14 13 13 13 12 12 12 12 12 11 11 10 10 10 10 11 11 12 12 13 13 12 13 13 13 13 13 13 13 14 14 14 15 15 15 15 15 15 15 16 16 16 16 16 17 17 17 17 17 17 17 17
28 27 26 25 24 23 22 21 20 19 18 17 16 16 15 14 14 13 13 12 12 12 11 11 11 10 10 10 10 10 10 10 11 12 13 13 13 13 13 13 13 13 14 14 14 14 14 15 15 15 16 16 16 16 16 17 17 17 17 17 17 18 18 18 18 18 18 18 18
27 26 25 24 23 22 21 20 19 18 17 17 16 15 14 14 13 13 12 12 11 11 10 10 10 9 9 9 9 9 10 11 12 13 14 14 14 14 14 14 14 14 15 15 15 15 15 15 16 16 16 17 17 17 17 18 18 18 18 19 19 19 19 19 19 19 19 19 19
26 25 24 23 22 21 20 19 18 17 16 16 15 14 14 13 13 12 12 11 11 10 9 9 9 8 8 8 9 9 11 13 14 15 15 15 15 15 15 15 15 15 16 16 16 16 16 16 17 17 17 17 18 18 18 19 19 19 19 20 20 20 20 20 20 20 20 20 20
25 24 23 21 20 19 18 18 17 16 15 15 14 14 13 13 12 12 11 11 10 9 9 9 8 8 8 9 9 11 12 13 14 15 15 14 15 15 15 16 16 16 16 16 16 16 17 17 17 18 18 18 18 19 19 19 19 20 20 20 20 20 21 21 21 21 21 21 21
23 22 21 20 19 18 17 16 16 15 15 14 14 13 13 12 12 11 11 10 9 9 9 8 8 8 8 9 10 11 12 13 13 13 14 14 14 15 15 16 16 16 16 16 17 17 17 17 17 18 19 19 19 19 19 19 20 20 20 20 21 21 21 21 21 22 22 22 22
21 20 19 18 17 17 16 16 15 15 15 14 14 13 13 12 11 11 10 9 9 8 8 8 8 8 8 9 9 10 11 12 12 13 13 14 14 15 15 16 16 16 16 16 16 16 17 17 17 18 19 19 20 20 20 20 20 20 20 21 21 21 22 22 22 22 23 23 23
19 18 18 17 17 17 16 16 15 15 14 14 13 12 12 11 10 10 9 8 8 8 8 8 8 8 8 9 10 10 11 12 12 12 13 13 13 14 15 15 15 16 16 16 16 16 16 17 17 18 18 19 20 20 20 20 20 20 21 21 21 22 22 23 23 23 23 24 24
18 18 18 17 17 17 16 16 15 14 14 13 12 11 11 10 9 9 8 8 7 7 7 7 8 8 9 9 10 10 11 11 12 12 12 12 13 13 14 15 15 15 16 16 16 16 16 17 17 18 18 19 20 20 20 20 21 21 21 21 22 22 23 23 23 24 24 24 24
19 18 18 18 17 16 16 15 14 13 12 11 10 10 9 9 8 8 7 7 7 7 7 7 7 8 8 9 10 10 11 11 11 12 12 12 13 13 14 15 15 16 16 16 16 16 17 17 17 18 18 19 20 20 21 21 21 21 21 22 22 22 23 23 24 24 24 25 25
19 19 18 17 16 16 15 13 12 12 11 10 9 9 8 7 7 7 6 6 6 6 6 6 7 7 8 9 9 10 11 11 12 13 13 14 14 14 15 15 16 16 16 16 17 17 17 17 18 18 19 19 20 21 21 21 21 22 22 22 22 23 23 23 24 24 25 25 25
19 18 17 16 15 14 13 12 11 10 9 9 8 7 7 6 6 6 6 6 6 6 6 7 8 8 9 10 10 11 12 13 13 14 14 14 14 15 15 16 16 16 17 17 17 18 18 18 18 19 19 20 20 21 21 21 22 22 22 22 23 23 23 24 24 24 25 25 25
18 17 16 15 14 13 12 11 10 9 8 7 7 6 6 6 6 5 5 6 6 7 8 9 9 10 11 12 12 13 13 14 14 15 15 15 15 15 16 16 16 17 17 17 18 18 18 18 19 19 19 20 20 21 21 22 22 22 22 23 23 23 24 24 24 25 25 25 26
16 15 14 13 12 11 10 9 8 7 7 6 6 6 6 6 6 6 7 7 8 9 10 10 11 12 13 13 14 14 15 15 15 15 15 15 15 16 16 16 17 17 17 18 18 18 18 19 19 19 20 20 21 21 22 22 22 23 23 23 23 23 24 24 25 25 25 25 26
15 14 13 12 11 10 9 8 7 6 6 6 7 7 7 7 8 9 9 10 11 11 11 12 13 13 14 14 14 15 15 15 15 15 16 16 16 16 16 16 16 17 17 18 18 18 18 19 19 19 20 20 21 21 22 22 23 23 23 24 24 24 24 24 25 25 25 25 26
14 13 12 10 9 8 7 7 7 7 7 7 8 8 9 9 10 11 11 12 12 13 13 13 14 14 14 15 15 15 15 15 15 15 15 15 15 16 16 16 16 16 17 17 17 18 18 18 19 19 20 20 21 21 22 22 23 23 24 24 24 24 24 24 25 25 25 26 26
13 11 10 9 8 7 7 7 7 7 8 8 9 10 10 11 12 12 12 13 13 13 13 13 14 14 14 14 14 14 14 14 14 14 15 15 15 15 15 15 15 15 15 16 16 17 17 17 18 18 19 20 20 21 21 22 22 23 23 24 24 24 24 24 25 25 25 25 26
11 10 9 8 7 7 7 7 7 7 8 9 10 10 11 11 12 12 12 12 13 13 13 13 14 14 14 14 14 13 13 13 13 13 14 14 14 14 14 14 14 14 14 14 15 15 16 16 16 17 18 18 19 20 21 21 22 22 23 23 23 23 24 24 24 24 25 25 25
10 9 8 7 7 7 7 7 8 8 9 10 10 11 11 11 12 12 12 13 13 13 13 13 13 13 13 13 13 12 12 12 12 12 13 13 13 13 13 13 12 12 12 13 13 14 14 15 15 16 16 17 18 19 20 21 22 22 23 23 23 23 23 24 24 24 24 24 24
9 8 8 7 7 8 8 8 9 10 10 11 11 11 12 12 12 13 13 13 13 14 13 13 13 13 13 12 12 12 11 11 11 11 12 12 12 12 12 12 12 11 11 12 12 13 13 14 15 15 16 17 18 19 20 21 22 23 23 24 24 24 24 24 25 25 25 24 24
9 8 8 8 9 9 9 10 10 11 11 11 12 12 12 13 13 13 13 14 14 13 13 13 12 12 12 11 11 11 10 10 10 11 11 11 11 12 12 13 12 12 12 12 13 13 14 14 15 16 17 18 19 20 21 22 23 24 24 25 25 26 26 26 26 26 26 26 25
10 9 9 10 10 10 11 12 12 12 12 12 13 13 13 13 13 14 14 14 13 13 12 12 11 11 11 11 11 10 10 10 10 11 11 12 12 12 13 13 13 13 13 13 14 14 15 16 16 17 18 19 20 21 22 23 24 25 26 26 26 27 27 27 27 27 27 27 27
12 12 12 12 12 13 13 14 14 14 14 14 13 13 13 14 14 14 14 13 13 12 12 11 11 11 11 11 11 11 11 11 11 11 12 13 13 13 14 14 15 15 15 15 15 16 17 17 18 18 19 20 21 22 23 24 25 26 26 26 27 27 27 28 28 28 29 29 28
Wind_Direction
237 240 242 243 243 244 246 248 249 250 250 248 246 243 243 244 245 245 245 245 246 248 250 253 256 259 261 263 265 267 269 272 274 277 280 282 284 286 288 290 291 293 295 296 297 299 301 303 305 308 310 312 314 316 318 319 322 324 326 328 330 331 333 335 336 337 339 341 342
237 240 242 243 244 245 246 248 249 249 248 247 245 243 242 243 244 245 244 245 245 246 248 249 251 254 257 259 262 264 266 268 270 273 275 277 280 282 284 287 288 291 292 294 295 297 299 300 302 304 306 307 309 311 313 314 317 319 322 324 326 328 330 331 333 334 336 337 339
237 240 242 243 244 246 247 248 248 247 246 245 244 243 242 242 243 243 243 243 242 243 243 244 246 249 252 255 258 260 262 264 266 268 271 273 275 278 281 283 285 287 289 291 293 294 296 297 299 301 303 304 306 308 309 310 313 315 318 320 322 325 327 329 330 332 334 335 337
237 240 242 244 245 247 247 247 246 244 243 242 242 241 241 241 242 243 243 242 240 239 239 240 242 245 248 252 255 257 259 260 262 265 267 270 272 275 277 280 282 284 286 288 290 292 293 295 297 299 300 301 303 305 306 308 310 312 314 317 319 322 324 326 328 329 331 333 335
238 240 241 243 244 245 245 245 243 241 240 240 240 239 240 241 241 243 243 242 240 239 238 240 242 246 249 252 254 256 258 259 261 263 265 268 271 273 276 278 280 282 283 286 288 289 291 293 295 296 298 299 301 303 304 306 308 310 312 314 316 319 321 323 325 327 329 330 332
239 240 241 241 241 242 242 242 241 239 238 238 238 238 239 240 241 242 243 243 241 240 240 241 245 250 254 256 257 258 258 260 261 263 266 268 270 273 275 277 278 280 282 284 285 287 289 291 293 295 296 298 300 301 303 305 307 309 310 312 314 316 318 320 322 324 326 327 329
239 240 240 239 239 239 239 240 239 238 237 236 237 237 239 240 241 242 243 243 242 241 241 243 247 253 257 260 260 260 260 261 263 265 267 269 271 272 274 276 277 279 280 282 284 286 288 290 292 294 295 297 298 300 302 304 306 307 309 311 312 314 316 318 320 321 323 325 326
238 238 237 236 235 236 236 237 237 237 236 236 236 237 239 240 241 242 243 243 242 241 240 242 246 252 258 261 261 261 261 262 264 266 268 269 271 272 273 275 276 278 279 281 283 285 287 289 290 292 294 296 297 299 301 302 305 306 308 310 311 313 314 316 318 319 321 323 324
237 236 234 233 233 233 234 235 235 235 234 235 236 237 239 240 241 242 242 242 242 241 241 241 244 251 257 261 263 262 262 263 265 267 269 271 271 272 273 275 276 277 278 280 282 283 285 288 290 291 293 295 297 299 300 302 304 306 307 309 311 312 313 315 317 318 320 321 323
236 234 232 231 230 230 231 232 233 233 233 234 235 237 238 240 241 242 243 244 244 242 241 242 245 250 256 261 263 263 263 263 265 268 270 271 272 273 273 275 276 277 278 280 281 283 285 287 289 291 293 295 297 299 300 302 304 306 307 308 310 311 313 314 316 317 319 321 323
234 232 230 228 228 228 229 230 230 231 231 232 234 237 238 240 242 243 244 245 245 244 243 245 248 253 258 262 263 263 263 264 266 268 271 272 272 273 273 274 275 276 278 279 280 283 285 287 289 291 294 296 297 299 301 303 304 306 307 308 309 311 312 313 315 317 319 321 323
231 229 228 227 227 227 227 228 228 229 230 232 235 237 239 240 241 243 245 245 245 244 246 249 252 256 260 262 263 263 263 264 266 269 271 272 272 272 272 273 274 276 277 278 280 282 284 287 289 292 294 296 298 300 301 303 304 305 307 308 309 311 312 313 315 317 319 322 324
228 226 225 225 225 226 226 226 227 228 230 232 235 237 238 239 241 243 243 244 244 244 246 250 254 258 260 262 262 262 262 264 268 271 272 272 272 272 272 272 273 275 277 279 280 282 285 287 289 292 294 297 299 300 301 303 304 305 307 308 310 312 313 315 317 319 321 323 325
225 224 223 224 224 225 225 225 226 228 230 232 234 236 237 238 240 241 242 242 243 243 246 250 254 258 261 262 262 262 263 265 270 273 275 275 274 274 274 274 275 276 278 280 282 284 287 289 291 293 295 297 299 301 302 304 305 307 308 310 312 314 316 317 319 321 323 324 326
222 222 222 223 223 224 224 225 226 228 230 232 233 234 235 236 237 239 239 240 241 242 245 249 252 257 260 261 261 262 264 268 272 276 278 279 278 278 278 278 279 280 281 283 285 287 289 291 293 295 297 298 300 302 303 305 307 309 311 313 315 317 318 320 321 322 324 325 325
221 221 221 222 222 223 224 225 227 228 230 231 232 232 233 234 236 236 237 237 239 241 244 246 250 254 257 259 259 261 264 269 274 278 281 282 282 282 283 283 283 284 285 287 289 291 293 294 296 298 299 300 302 303 305 307 309 311 313 315 317 318 319 320 321 322 323 323 324
220 220 221 221 221 222 224 225 227 229 229 230 230 231 232 233 234 235 235 236 237 239 241 244 248 251 253 255 257 260 264 269 274 278 282 284 285 286 286 286 286 287 289 290 292 294 295 297 299 300 301 302 303 305 307 309 311 312 313 314 316 316 317 318 319 320 320 321 322
219 219 219 220 220 221 223 225 227 228 228 229 230 231 232 233 233 234 235 236 238 238 240 244 247 250 251 253 256 259 264 270 276 280 284 287 288 288 288 288 289 290 291 293 294 296 297 299 300 302 303 304 305 306 308 309 310 310 311 312 313 314 314 315 316 317 317 318 319
218 218 218 218 219 220 222 223 224 226 227 228 230 231 232 232 233 233 234 237 239 240 241 244 247 250 252 254 257 262 268 274 280 284 288 290 291 291 290 290 290 292 293 294 296 298 299 300 301 302 303 304 305 306 307 307 307 308 308 309 309 310 311 312 313 314 314 315 315
216 216 216 216 217 218 219 220 221 222 224 226 228 229 229 230 232 232 233 235 238 241 242 244 247 250 253 255 260 266 272 278 283 287 289 291 292 292 291 291 291 292 294 295 297 298 300 301 302 302 303 304 304 305 305 305 305 305 306 306 307 307 308 309 310 311 311 312 312
214 214 214 215 215 215 215 215 216 218 220 222 223 224 225 227 228 229 230 233 236 238 239 241 244 247 251 256 262 268 274 280 283 285 286 288 290 291 291 291 291 293 294 295 297 298 299 300 301 301 302 302 302 303 303 303 303 304 304 305 305 306 307 307 308 308 309 309 310
212 212 212 212 211 211 211 212 212 214 215 216 217 218 219 221 222 224 226 228 231 232 234 236 240 244 250 258 265 272 277 279 280 280 281 284 286 289 290 290 291 291 293 294 295 297 298 299 300 300 300 300 300 301 301 302 302 303 303 304 304 305 305 306 306 307 307 307 307
209 209 208 208 208 207 207 207 208 209 209 210 210 211 212 214 215 218 220 222 224 226 229 233 239 245 253 261 269 274 278 279 279 279 279 281 283 286 288 288 289 290 291 292 294 295 297 298 298 299 299 299 299 300 300 301 302 302 303 303 304 304 304 305 305 305 306 306 306
206 205 204 204 203 202 202 202 202 202 202 202 203 204 205 207 209 212 214 216 219 223 228 235 241 249 257 265 270 275 277 279 280 280 281 281 282 284 285 287 287 288 289 291 292 294 295 297 298 298 299 299 299 300 300 301 301 302 302 303 303 303 303 304 304 304 305 305 305
201 200 199 198 197 196 196 196 195 195 195 196 198 199 201 203 206 208 211 215 219 225 231 238 246 253 260 266 271 275 278 279 280 281 282 282 282 283 285 286 286 287 289 290 292 294 295 297 298 298 299 300 300 301 301 301 302 302 302 303 303 303 303 303 303 303 303 304 304
195 193 192 191 191 190 190 190 190 191 192 193 195 197 199 203 206 209 213 218 223 230 237 245 252 259 264 269 273 276 278 279 280 281 281 282 283 284 284 285 286 287 289 291 292 294 296 297 298 298 299 299 300 300 301 301 301 302 302 302 302 302 303 302 302 302 302 302 302
189 188 187 187 186 187 187 188 189 190 192 193 195 198 201 205 208 212 216 222 229 236 243 250 257 263 268 272 274 276 277 278 279 280 282 283 284 285 285 285 285 287 289 290 292 293 295 296 297 297 297 298 298 298 299 299 300 301 301 301 301 301 301 301 301 301 301 301 301
184 184 184 185 185 187 188 189 190 191 193 195 198 201 203 206 209 214 219 225 232 240 247 253 259 266 271 274 275 277 278 279 281 283 284 286 286 286 285 284 285 286 288 289 291 292 293 294 294 295 295 295 295 296 296 297 298 299 299 299 299 299 299 299 299 299 299 299 299
183 183 184 185 186 188 189 190 192 194 195 197 200 202 204 207 212 218 225 231 239 246 252 259 266 272 277 279 281 282 283 284 285 286 287 288 287 286 284 284 285 286 287 288 289 290 291 291 291 291 292 292 292 293 294 295 295 296 296 297 297 297 297 297 297 297 297 297 296
183 184 185 186 188 189 190 191 192 194 195 198 200 204 208 214 222 228 236 244 252 258 265 272 279 283 286 287 288 289 289 289 289 289 288 288 286 284 284 284 284 285 286 286 287 287 288 288 288 288 288 289 289 290 291 292 292 293 294 294 294 294 294 294 294 294 294 294 294
184 185 185 187 188 189 190 191 192 194 198 202 209 216 224 233 240 247 255 262 269 274 279 283 287 288 289 289 290 291 291 291 290 289 287 286 284 283 283 283 283 283 284 284 284 284 285 285 285 286 286 286 286 287 288 289 290 290 291 291 291 291 292 292 292 292 292 292 292
185 185 185 186 187 188 190 192 196 202 211 220 231 241 249 256 263 270 274 277 280 283 286 287 288 289 290 290 290 290 290 290 288 287 285 284 282 282 281 281 280 281 281 281 281 281 282 283 283 283 284 284 285 285 286 287 288 288 289 289 289 289 290 290 290 290 290 290 290
184 184 184 186 188 191 197 204 213 225 237 247 255 262 268 272 278 280 282 282 284 285 286 287 287 288 288 289 288 288 287 286 285 283 282 281 280 279 279 278 277 277 278 278 279 279 280 281 281 282 282 283 283 284 285 286 286 287 287 288 288 288 289 289 289 289 289 289 289
184 185 187 190 196 204 214 225 237 248 256 263 268 272 276 278 280 282 283 283 284 285 285 286 286 286 286 286 285 284 284 283 282 281 280 279 278 277 276 276 276 276 276 277 277 278 279 280 281 282 282 283 284 284 285 286 287 287 287 288 289 289 289 289 289 289 289 289 289
187 190 196 203 213 224 234 244 252 260 265 270 273 276 279 280 280 281 282 283 284 285 285 286 286 286 286 285 285 284 284 283 281 280 279 278 277 276 275 275 276 276 277 277 278 279 281 281 283 283 284 285 286 287 287 288 288 288 289 289 290 290 290 290 290 290 290 290 290
194 201 210 219 229 237 245 253 259 265 269 272 274 277 278 279 280 280 280 282 283 284 285 287 288 288 288 288 287 286 284 283 281 280 278 277 277 276 276 277 278 279 280 281 282 283 284 285 286 287 288 289 289 290 291 291 291 291 292 292 292 293 293 293 293 292 292 292 292
204 212 221 230 238 245 252 258 264 267 269 271 272 273 273 274 275 277 279 282 286 288 290 292 292 291 290 289 287 285 283 282 281 279 278 278 279 279 280 281 282 284 285 286 287 288 289 290 292 292 293 294 294 294 295 295 295 295 296 296 296 296 297 296 296 295 295 295 295
214 222 232 240 247 253 258 262 265 266 266 266 267 267 268 270 273 277 281 286 290 292 293 294 292 291 289 287 285 283 282 281 280 279 279 280 282 283 286 287 288 289 291 292 293 294 295 296 296 297 298 298 298 298 298 298 298 298 298 298 299 299 299 299 298 298 297 297 297
228 237 245 250 254 257 260 261 261 260 260 260 261 263 265 269 274 279 284 288 291 292 292 291 289 287 285 284 282 281 280 279 280 280 281 283 285 288 290 292 293 294 295 296 297 298 298 299 299 299 299 299 298 298 298 298 298 298 298 299 300 300 300 299 299 299 298 298 298
241 248 253 255 255 256 256 256 255 254 254 256 257 260 264 269 275 280 285 288 289 289 288 286 284 282 281 280 280 279 279 279 280 282 284 286 288 290 292 294 295 297 297 298 298 299 299 299 299 299 298 298 297 297 297 296 297 297 298 298 299 300 300 300 300 300 300 300 300
243 248 251 251 250 250 250 249 249 250 251 253 256 260 264 271 276 281 284 286 285 284 283 281 279 278 278 278 279 279 280 280 281 283 286 287 289 290 292 293 295 297 298 298 299 299 299 298 298 298 297 297 296 296 295 296 296 297 298 299 300 301 301 301 301 301 301 302 302
Height
1533 1533 1534 1535 1535 1535 1536 1536 1537 1537 1537 1538 1538 1538 1538 1538 1539 1539 1539 1539 1538 1538 1538 1538 1539 1539 1539 1539 1539 1539 1539 1539 1539 1539 1539 1539 1539 1539 1539 1539 1539 1538 1538 1538 1538 1538 1538 1537 1537 1537 1536 1536 1535 1535 1534 1533 1533 1532 1532 1531 1531 1530 1530 1529 1528 1528 1527 1527 1526
1532 1532 1533 1533 1534 1534 1534 1535 1535 1536 1536 1536 1537 1537 1537 1537 1538 1538 1538 1538 1538 1538 1538 1538 1538 1538 1538 1538 1538 1538 1538 1538 1538 1538 1538 1538 1538 1538 1538 1538 1538 1538 1537 1537 1537 1537 1537 1536 1536 1536 1535 1535 1534 1534 1533 1533 1532 1532 1531 1531 1530 1529 1529 1528 1528 1527 1527 1526 1525
1530 1531 1531 1532 1532 1533 1533 1533 1534 1534 1534 1535 1535 1536 1536 1536 1536 1536 1536 1536 1536 1537 1537 1537 1537 1537 1537 1537 1537 1537 1537 1537 1537 1537 1537 1537 1537 1537 1537 1537 1537 1536 1536 1536 1536 1536 1535 1535 1535 1535 1534 1534 1533 1533 1533 1532 1532 1531 1531 1530 1529 1529 1528 1528 1527 1526 1526 1525 1524
1528 1529 1530 1530 1531 1531 1532 1532 1533 1533 1533 1533 1534 1534 1534 1534 1535 1535 1535 1535 1535 1535 1535 1535 1535 1535 1536 1536 1536 1536 1536 1536 1536 1536 1536 1536 1536 1536 1536 1535 1535 1535 1535 1535 1535 1534 1534 1534 1534 1534 1533 1533 1533 1532 1532 1531 1531 1530 1530 1529 1529 1528 1528 1527 1526 1525 1525 1524 1523
1527 1528 1528 1529 1529 1530 1530 1531 1531 1531 1532 1532 1532 1533 1533 1533 1533 1533 1534 1534 1534 1534 1534 1534 1534 1534 1534 1534 1535 1535 1535 1535 1535 1535 1535 1535 1534 1534 1534 1534 1534 1534 1534 1534 1533 1533 1533 1533 1533 1533 1533 1532 1532 1532 1531 1531 1530 1530 1529 1529 1528 1528 1527 1526 1525 1525 1524 1523 1523
1525 1526 1527 1527 1528 1528 1529 1529 1529 1530 1530 1530 1531 1531 1531 1532 1532 1532 1532 1533 1533 1533 1533 1533 1533 1533 1533 1533 1533 1534 1534 1534 1534 1534 1533 1533 1533 1533 1533 1533 1533 1533 1533 1533 1533 1532 1532 1532 1532 1532 1532 1531 1531 1531 1530 1530 1529 1529 1528 1528 1527 1527 1526 1526 1525 1524 1523 1523 1522
1523 1524 1525 1525 1526 1526 1527 1527 1528 1528 1528 1528 1529 1529 1530 1530 1530 1530 1531 1531 1531 1531 1531 1531 1531 1531 1532 1532 1532 1533 1533 1533 1533 1533 1533 1532 1532 1532 1532 1532 1532 1531 1531 1531 1531 1531 1531 1531 1531 1531 1531 1530 1530 1530 1529 1529 1528 1528 1528 1527 1526 1526 1525 1525 1524 1523 1523 1522 1521
1522 1523 1523 1523 1524 1524 1525 1525 1526 1526 1527 1527 1527 1528 1528 1528 1528 1529 1529 1529 1529 1529 1530 1530 1530 1530 1530 1530 1531 1531 1531 1531 1532 1531 1531 1531 1531 1531 1531 1530 1530 1530 1530 1530 1530 1530 1530 1530 1530 1530 1530 1529 1529 1529 1528 1528 1528 1527 1527 1526 1526 1525 1524 1524 1523 1523 1522 1522 1521
1520 1520 1521 1522 1522 1523 1523 1523 1524 1524 1525 1525 1526 1526 1526 1527 1527 1527 1528 1528 1528 1528 1528 1528 1528 1528 1529 1529 1529 1530 1530 1530 1530 1530 1530 1530 1530 1529 1529 1529 1529 1529 1529 1529 1529 1529 1529 1529 1529 1529 1528 1528 1528 1528 1528 1527 1527 1526 1526 1525 1525 1524 1523 1523 1523 1522 1521 1521 1520
1518 1518 1519 1519 1520 1521 1521 1522 1522 1523 1523 1523 1524 1524 1525 1525 1525 1526 1526 1526 1526 1527 1527 1527 1527 1527 1528 1528 1528 1528 1528 1529 1529 1529 1529 1529 1528 1528 1528 1528 1528 1528 1528 1528 1528 1528 1528 1528 1528 1528 1528 1527 1527 1527 1527 1526 1526 1525 1525 1524 1524 1523 1523 1522 1522 1521 1520 1520 1519
1515 1516 1517 1517 1518 1518 1519 1520 1520 1521 1521 1522 1522 1523 1523 1523 1524 1524 1524 1525 1525 1525 1525 1526 1526 1526 1526 1526 1527 1527 1527 1527 1528 1528 1528 1528 1528 1527 1527 1527 1526 1526 1526 1526 1526 1526 1526 1526 1526 1526 1526 1526 1526 1526 1525 1525 1525 1524 1524 1523 1523 1523 1522 1521 1521 1520 1519 1519 1518
1513 1514 1515 1515 1516 1517 1517 1518 1518 1519 1519 1520 1520 1521 1521 1522 1522 1523 1523 1523 1523 1524 1524 1524 1524 1525 1525 1525 1525 1525 1526 1526 1526 1526 1526 1527 1527 1526 1526 1526 1525 1525 1525 1525 1525 1525 1525 1525 1525 1525 1525 1525 1525 1524 1524 1524 1523 1523 1523 1522 1522 1521 1521 1520 1520 1519 1518 1518 1517
1511 1512 1513 1514 1514 1515 1516 1516 1517 1517 1518 1518 1519 1519 1520 1520 1520 1521 1521 1522 1522 1522 1523 1523 1523 1523 1523 1524 1524 1524 1524 1524 1524 1525 1525 1525 1526 1526 1525 1525 1524 1524 1524 1523 1523 1523 1524 1524 1524 1524 1524 1523 1523 1523 1523 1523 1522 1522 1522 1521 1521 1520 1519 1519 1518 1518 1517 1517 1516
1509 1510 1511 1512 1513 1513 1514 1515 1515 1516 1516 1517 1517 1518 1518 1518 1519 1519 1520 1520 1520 1521 1521 1521 1522 1522 1522 1523 1523 1523 1523 1523 1523 1523 1524 1524 1525 1525 1525 1524 1524 1523 1523 1523 1522 1522 1523 1523 1523 1523 1523 1522 1522 1522 1522 1521 1521 1520 1520 1520 1519 1518 1518 1518 1517 1517 1516 1516 1515
1507 1508 1509 1510 1511 1512 1512 1513 1513 1514 1515 1515 1516 1516 1517 1517 1517 1518 1518 1518 1519 1519 1519 1520 1520 1520 1521 1521 1521 1522 1522 1521 1521 1522 1523 1523 1524 1524 1524 1524 1523 1523 1522 1521 1521 1521 1521 1521 1521 1521 1521 1521 1521 1520 1520 1520 1519 1519 1518 1518 1518 1517 1517 1516 1516 1515 1515 1514 1514
1505 1506 1507 1508 1509 1510 1511 1511 1512 1513 1513 1514 1514 1515 1515 1515 1516 1516 1517 1517 1517 1518 1518 1518 1519 1519 1519 1520 1520 1520 1520 1520 1520 1520 1521 1522 1523 1523 1523 1523 1523 1522 1521 1520 1520 1520 1519 1519 1519 1519 1519 1519 1519 1519 1518 1518 1518 1518 1517 1517 1516 1516 1515 1515 1514 1514 1513 1513 1513
1503 1504 1505 1506 1507 1508 1509 1510 1511 1511 1512 1512 1513 1513 1514 1514 1514 1515 1515 1515 1516 1516 1517 1517 1517 1518 1518 1518 1518 1519 1519 1518 1518 1518 1519 1520 1521 1522 1523 1523 1522 1521 1520 1519 1519 1518 1518 1518 1518 1518 1518 1518 1518 1517 1517 1517 1516 1516 1516 1515 1515 1514 1514 1513 1513 1513 1512 1512 1511
1502 1503 1504 1505 1506 1506 1507 1508 1509 1510 1510 1511 1511 1512 1513 1513 1513 1513 1514 1514 1514 1515 1515 1516 1516 1516 1517 1517 1517 1518 1518 1518 1517 1517 1518 1519 1520 1521 1521 1522 1521 1521 1520 1519 1518 1517 1517 1517 1517 1517 1516 1516 1516 1516 1516 1515 1515 1515 1514 1514 1513 1513 1512 1512 1511 1511 1511 1510 1510
1500 1501 1502 1503 1504 1505 1505 1506 1507 1508 1509 1509 1510 1510 1511 1512 1512 1512 1513 1513 1513 1514 1514 1514 1515 1515 1516 1516 1516 1516 1516 1516 1516 1516 1516 1517 1518 1520 1520 1520 1520 1520 1519 1518 1517 1516 1516 1515 1515 1515 1515 1515 1515 1514 1514 1514 1514 1513 1513 1513 1512 1512 1511 1511 1510 1510 1509 1509 1508
1499 1500 1501 1502 1503 1503 1504 1504 1505 1506 1507 1508 1508 1509 1509 1510 1510 1511 1511 1512 1512 1513 1513 1513 1513 1514 1514 1515 1515 1515 1515 1515 1515 1515 1515 1516 1517 1518 1519 1519 1519 1519 1518 1517 1516 1515 1514 1514 1514 1513 1513 1513 1513 1513 1513 1513 1512 1512 1512 1511 1511 1511 1510 1510 1509 1508 1508 1508 1507
1498 1498 1499 1500 1501 1502 1503 1503 1503 1504 1505 1506 1506 1507 1508 1508 1509 1510 1510 1510 1511 1511 1512 1512 1513 1513 1513 1514 1514 1514 1514 1514 1514 1514 1514 1515 1516 1517 1518 1518 1518 1518 1517 1516 1515 1514 1513 1513 1512 1512 1512 1512 1512 1512 1511 1511 1511 1511 1510 1510 1510 1509 1509 1508 1508 1508 1507 1506 1506
1496 1497 1498 1499 1500 1501 1501 1502 1502 1503 1503 1504 1505 1505 1506 1507 1508 1508 1509 1509 1510 1510 1510 1511 1511 1512 1512 1513 1513 1513 1513 1513 1513 1513 1513 1513 1515 1516 1516 1517 1517 1516 1515 1515 1514 1513 1512 1511 1511 1511 1510 1510 1510 1510 1510 1510 1509 1509 1509 1508 1508 1508 1508 1507 1507 1506 1506 1505 1505
1495 1496 1497 1498 1499 1499 1500 1501 1501 1502 1502 1503 1503 1504 1505 1505 1506 1507 1507 1508 1508 1509 1509 1509 1510 1510 1511 1511 1511 1512 1512 1512 1512 1512 1512 1512 1513 1514 1515 1515 1515 1515 1514 1513 1513 1512 1511 1510 1509 1509 1509 1509 1508 1508 1508 1508 1508 1508 1507 1507 1507 1506 1506 1506 1505 1505 1504 1504 1503
1494 1495 1496 1497 1498 1498 1499 1500 1500 1501 1501 1502 1502 1503 1503 1504 1505 1505 1506 1507 1507 1508 1508 1508 1509 1509 1509 1510 1510 1510 1511 1511 1511 1511 1510 1511 1511 1512 1513 1513 1513 1513 1513 1512 1511 1510 1509 1508 1508 1508 1507 1507 1507 1507 1507 1506 1506 1506 1506 1505 1505 1505 1504 1504 1503 1503 1503 1502 1502
1493 1494 1495 1496 1497 1498 1498 1499 1499 1500 1500 1501 1501 1502 1503 1503 1504 1504 1505 1506 1506 1507 1507 1507 1508 1508 1508 1508 1509 1509 1509 1509 1509 1509 1509 1509 1510 1510 1511 1512 1512 1512 1511 1510 1509 1508 1508 1507 1506 1506 1505 1505 1505 1505 1505 1504 1504 1504 1504 1503 1503 1503 1503 1502 1502 1502 1501 1500 1500
1493 1493 1494 1495 1496 1497 1498 1498 1498 1499 1499 1500 1501 1501 1502 1502 1503 1503 1504 1504 1505 1505 1506 1506 1506 1507 1507 1507 1508 1508 1508 1508 1508 1508 1508 1508 1508 1509 1509 1510 1510 1510 1509 1508 1508 1507 1506 1505 1505 1504 1504 1503 1503 1503 1503 1503 1503 1502 1502 1502 1501 1501 1501 1500 1500 1500 1499 1499 1498
1492 1493 1494 1495 1495 1496 1497 1498 1498 1498 1499 1499 1500 1500 1501 1501 1502 1502 1503 1503 1503 1504 1504 1505 1505 1505 1505 1506 1506 1506 1507 1507 1507 1507 1507 1507 1507 1507 1508 1508 1508 1508 1508 1507 1506 1505 1504 1504 1503 1503 1502 1502 1502 1502 1501 1501 1501 1500 1500 1500 1500 1499 1499 1499 1498 1498 1498 1497 1497
1491 1492 1493 1494 1495 1495 1496 1497 1498 1498 1498 1499 1499 1500 1500 1501 1501 1501 1502 1502 1502 1503 1503 1503 1503 1504 1504 1504 1504 1505 1505 1505 1506 1506 1506 1506 1506 1506 1506 1507 1507 1506 1506 1505 1504 1504 1503 1503 1502 1501 1501 1500 1500 1500 1499 1499 1499 1499 1498 1498 1498 1498 1497 1497 1497 1496 1496 1495 1495
1490 1491 1492 1493 1494 1495 1496 1496 1497 1498 1498 1498 1499 1499 1499 1500 1500 1500 1501 1501 1501 1502 1502 1502 1502 1503 1503 1503 1503 1503 1503 1504 1504 1504 1504 1504 1504 1505 1505 1505 1505 1504 1504 1503 1503 1502 1502 1501 1500 1500 1499 1499 1498 1498 1498 1498 1497 1497 1497 1497 1496 1496 1496 1495 1495 1494 1494 1493 1493
1489 1490 1491 1492 1493 1494 1495 1496 1496 1497 1497 1498 1498 1498 1499 1499 1499 1499 1500 1500 1500 1500 1500 1501 1501 1501 1501 1501 1501 1502 1502 1502 1502 1502 1503 1503 1503 1503 1503 1503 1503 1503 1502 1502 1501 1500 1500 1499 1499 1498 1498 1497 1497 1496 1496 1496 1495 1495 1495 1495 1494 1494 1494 1493 1493 1493 1492 1492 1491
1488 1490 1491 1492 1493 1493 1494 1495 1495 1496 1496 1497 1497 1498 1498 1498 1498 1498 1498 1499 1499 1499 1499 1499 1499 1500 1500 1500 1500 1500 1500 1500 1500 1501 1501 1501 1501 1501 1501 1501 1501 1501 1500 1500 1499 1498 1498 1498 1497 1497 1496 1496 1495 1495 1494 1494 1493 1493 1493 1493 1493 1493 1492 1492 1491 1491 1491 1490 1490
1488 1489 1490 1491 1492 1492 1493 1494 1494 1495 1495 1496 1496 1497 1497 1497 1497 1497 1498 1498 1498 1498 1498 1498 1498 1498 1498 1498 1498 1498 1498 1498 1499 1499 1499 1499 1499 1499 1499 1499 1499 1499 1498 1498 1497 1497 1496 1496 1495 1495 1494 1494 1493 1493 1493 1492 1492 1491 1491 1491 1491 1491 1490 1490 1490 1489 1489 1488 1488
1487 1488 1489 1490 1490 1491 1492 1493 1493 1494 1494 1495 1495 1495 1496 1496 1496 1496 1496 1496 1496 1497 1497 1497 1497 1497 1497 1497 1497 1497 1497 1497 1497 1497 1497 1497 1497 1497 1497 1497 1497 1497 1496 1496 1495 1495 1494 1494 1494 1493 1493 1492 1492 1491 1491 1490 1490 1490 1489 1489 1489 1489 1489 1488 1488 1488 1487 1487 1486
1486 1487 1488 1488 1489 1490 1491 1491 1492 1493 1493 1493 1493 1494 1494 1494 1494 1495 1495 1495 1495 1495 1495 1495 1495 1495 1495 1495 1495 1495 1495 1495 1495 1495 1495 1495 1495 1495 1495 1495 1495 1494 1494 1494 1493 1493 1493 1492 1492 1491 1491 1490 1490 1489 1489 1488 1488 1488 1488 1487 1487 1487 1487 1487 1486 1486 1485 1485 1484
1485 1486 1487 1487 1488 1489 1489 1490 1490 1491 1491 1492 1492 1493 1493 1493 1493 1493 1493 1493 1493 1493 1493 1493 1493 1493 1493 1493 1493 1493 1493 1493 1493 1493 1493 1493 1493 1493 1493 1493 1493 1493 1492 1492 1491 1491 1491 1491 1490 1490 1489 1488 1488 1488 1487 1487 1486 1486 1486 1485 1485 1485 1485 1485 1484 1484 1483 1483 1483
1484 1485 1485 1486 1487 1487 1488 1488 1489 1489 1490 1490 1491 1491 1491 1492 1492 1492 1492 1492 1492 1492 1492 1492 1492 1492 1491 1491 1491 1491 1491 1491 1491 1491 1491 1491 1491 1491 1491 1491 1491 1490 1490 1490 1489 1489 1489 1489 1488 1488 1487 1487 1486 1486 1485 1485 1484 1484 1484 1484 1483 1483 1483 1483 1483 1482 1482 1481 1481
1483 1484 1484 1485 1485 1486 1487 1487 1488 1488 1488 1489 1489 1490 1490 1490 1490 1490 1490 1490 1490 1490 1490 1490 1490 1489 1489 1489 1489 1489 1489 1489 1489 1489 1489 1489 1489 1488 1488 1488 1488 1488 1488 1488 1488 1488 1487 1487 1487 1486 1486 1485 1485 1484 1483 1483 1483 1482 1482 1482 1482 1481 1481 1481 1480 1480 1479 1479 1479
1482 1483 1483 1483 1484 1484 1485 1486 1486 1487 1487 1488 1488 1488 1489 1489 1489 1489 1489 1489 1489 1488 1488 1488 1488 1488 1488 1488 1488 1488 1488 1488 1488 1487 1487 1487 1487 1487 1487 1486 1487 1487 1487 1486 1486 1486 1486 1485 1485 1485 1484 1483 1483 1483 1482 1481 1481 1480 1480 1480 1479 1479 1479 1478 1478 1478 1477 1477 1477
1481 1482 1482 1482 1483 1483 1484 1484 1485 1486 1486 1487 1487 1487 1487 1488 1487 1487 1487 1487 1487 1487 1487 1487 1486 1486 1486 1486 1486 1486 1486 1486 1486 1486 1485 1485 1485 1485 1485 1484 1484 1485 1485 1485 1484 1484 1484 1484 1483 1483 1483 1482 1481 1481 1480 1480 1479 1478 1478 1478 1477 1477 1476 1476 1476 1475 1474 1474 1474
1480 1481 1481 1481 1482 1482 1483 1483 1484 1484 1485 1485 1486 1486 1486 1486 1486 1486 1486 1486 1485 1485 1485 1485 1485 1485 1485 1485 1485 1485 1485 1484 1484 1484 1484 1483 1483 1483 1483 1483 1483 1483 1483 1483 1483 1483 1482 1482 1482 1482 1481 1480 1480 1479 1478 1478 1477 1477 1476 1476 1475 1474 1474 1473 1473 1472 1472 1471 1471
1479 1480 1480 1480 1481 1481 1482 1482 1483 1483 1484 1484 1484 1485 1485 1485 1484 1484 1484 1484 1484 1484 1484 1484 1483 1483 1483 1483 1483 1483 1483 1483 1483 1483 1482 1482 1482 1481 1481 1481 1481 1481 1481 1481 1481 1481 1481 1480 1480 1480 1479 1479 1478 1477 1477 1476 1475 1474 1474 1473 1473 1472 1471 1470 1470 1469 1469 1468 1468